When you browse on this site, cookies collect data to enhance your experience and personalize the content and advertising you see.
Visit our Privacy Policy to learn more. By continuing to use the site, you agree to this use of cookies and data.
  • En España
  • Lista de países
  • Para 7 días
  • Temperatura del agua
  • Mapa Satelital
  • El tiempo en el mapa
  • Informadores
  • user-avatar
    Iniciar sesión

    Tiempo cada hora Tarin Kowt

    Hoy, 23 Enero, Miércoles

    Tiempo Temperatura Precipitaciones Viento Presión Humedad
    00:00 -1°C° 0 mm 0 mps 614 mmHg 48%
    01:00 -1°C° 0 mm 0 mps 615 mmHg 48%
    02:00 -1°C° 0 mm 0 mps 615 mmHg 48%
    03:00 -1°C° 0 mm 0 mps 615 mmHg 48%
    04:00 -2°C° 0 mm 0 mps 615 mmHg 47%
    05:00 -2°C° 0 mm 0 mps 615 mmHg 47%
    06:00 -1°C° 0 mm 1 mps 615 mmHg 47%
    07:00 -1°C° 0 mm 1 mps 616 mmHg 46%
    08:00 0°C° 0 mm 1 mps 616 mmHg 42%
    09:00 0°C° 0 mm 0 mps 616 mmHg 38%
    10:00 +1°C° 0 mm 0 mps 617 mmHg 34%
    11:00 +2°C° 0 mm 0 mps 617 mmHg 33%
    12:00 +2°C° 0 mm 0 mps 616 mmHg 32%
    13:00 +3°C° 0 mm 0 mps 616 mmHg 31%
    14:00 +4°C° 0 mm 1 mps 616 mmHg 30%
    15:00 +4°C° 0 mm 1 mps 616 mmHg 30%
    16:00 +4°C° 0 mm 1 mps 616 mmHg 29%
    17:00 +4°C° 0 mm 1 mps 616 mmHg 34%
    18:00 +2°C° 0 mm 0 mps 617 mmHg 39%
    19:00 +1°C° 0 mm 0 mps 617 mmHg 43%
    20:00 +1°C° 0 mm 0 mps 617 mmHg 44%
    21:00 +1°C° 0 mm 0 mps 617 mmHg 44%
    22:00 0°C° 0 mm 0 mps 617 mmHg 44%
    23:00 +1°C° 0 mm 1 mps 617 mmHg 44%

    Mañana, 24 Enero, Jueves

    Tiempo Temperatura Precipitaciones Viento Presión Humedad
    00:00 +1°C° 0 mm 1 mps 618 mmHg 43%
    01:00 +1°C° 0 mm 1 mps 618 mmHg 43%
    02:00 +1°C° 0 mm 1 mps 618 mmHg 43%
    03:00 0°C° 0 mm 1 mps 618 mmHg 43%
    04:00 0°C° 0 mm 1 mps 618 mmHg 42%
    05:00 0°C° 0 mm 1 mps 618 mmHg 42%
    06:00 -2°C° 0 mm 2 mps 618 mmHg 41%
    07:00 -2°C° 0 mm 2 mps 619 mmHg 41%
    08:00 -1°C° 0 mm 2 mps 619 mmHg 36%
    09:00 +1°C° 0 mm 2 mps 619 mmHg 31%
    10:00 +2°C° 0 mm 2 mps 620 mmHg 26%
    11:00 +3°C° 0 mm 2 mps 619 mmHg 25%
    12:00 +3°C° 0 mm 2 mps 619 mmHg 25%
    13:00 +5°C° 0 mm 1 mps 618 mmHg 24%
    14:00 +5°C° 0 mm 1 mps 618 mmHg 24%
    15:00 +5°C° 0 mm 1 mps 618 mmHg 24%
    16:00 +4°C° 0 mm 2 mps 618 mmHg 24%
    17:00 +4°C° 0 mm 1 mps 618 mmHg 28%
    18:00 +3°C° 0 mm 1 mps 618 mmHg 31%
    19:00 +3°C° 0 mm 1 mps 618 mmHg 35%
    20:00 +2°C° 0 mm 1 mps 618 mmHg 35%
    21:00 +2°C° 0 mm 1 mps 619 mmHg 35%
    22:00 +1°C° 0 mm 1 mps 619 mmHg 34%
    23:00 +1°C° 0 mm 1 mps 619 mmHg 33%

    Pasado mañana, 25 Enero, Viernes

    Tiempo Temperatura Precipitaciones Viento Presión Humedad
    00:00 +1°C° 0 mm 1 mps 618 mmHg 32%
    01:00 +1°C° 0 mm 1 mps 618 mmHg 31%
    02:00 -2°C° 0 mm 2 mps 618 mmHg 31%
    03:00 -2°C° 0 mm 2 mps 618 mmHg 31%
    04:00 -2°C° 0 mm 2 mps 618 mmHg 31%
    05:00 -2°C° 0 mm 2 mps 618 mmHg 31%
    06:00 -2°C° 0 mm 2 mps 618 mmHg 31%
    07:00 -2°C° 0 mm 2 mps 618 mmHg 31%
    08:00 -1°C° 0 mm 2 mps 618 mmHg 27%
    09:00 +1°C° 0 mm 2 mps 619 mmHg 24%
    10:00 +2°C° 0 mm 2 mps 619 mmHg 21%
    11:00 +4°C° 0 mm 1 mps 619 mmHg 20%
    12:00 +4°C° 0 mm 1 mps 618 mmHg 20%
    13:00 +5°C° 0 mm 1 mps 617 mmHg 20%
    14:00 +5°C° 0 mm 1 mps 617 mmHg 21%
    15:00 +5°C° 0 mm 1 mps 617 mmHg 21%
    16:00 +5°C° 0 mm 1 mps 617 mmHg 21%
    17:00 +4°C° 0 mm 1 mps 617 mmHg 25%
    18:00 +3°C° 0 mm 1 mps 617 mmHg 30%
    19:00 +3°C° 0 mm 1 mps 618 mmHg 34%
    20:00 +2°C° 0 mm 1 mps 618 mmHg 34%
    21:00 +2°C° 0 mm 1 mps 618 mmHg 33%
    22:00 +2°C° 0 mm 1 mps 618 mmHg 33%
    23:00 +1°C° 0 mm 1 mps 618 mmHg 33%

    26 Enero, Sábado

    Tiempo Temperatura Precipitaciones Viento Presión Humedad
    00:00 +1°C° 0 mm 1 mps 618 mmHg 32%
    01:00 +1°C° 0 mm 1 mps 617 mmHg 32%
    02:00 +1°C° 0 mm 1 mps 617 mmHg 31%
    03:00 +1°C° 0 mm 1 mps 617 mmHg 31%
    04:00 +1°C° 0 mm 1 mps 617 mmHg 30%
    05:00 +1°C° 0 mm 1 mps 618 mmHg 29%
    06:00 +1°C° 0 mm 1 mps 618 mmHg 29%
    07:00 +1°C° 0 mm 1 mps 619 mmHg 29%
    08:00 +2°C° 0 mm 1 mps 619 mmHg 26%
    09:00 +3°C° 0 mm 1 mps 620 mmHg 23%
    10:00 +4°C° 0 mm 1 mps 620 mmHg 21%
    11:00 +5°C° 0 mm 1 mps 620 mmHg 21%
    12:00 +5°C° 0 mm 0 mps 619 mmHg 22%
    13:00 +5°C° 0 mm 0 mps 619 mmHg 22%
    14:00 +5°C° 0 mm 0 mps 619 mmHg 23%
    15:00 +5°C° 0 mm 0 mps 619 mmHg 23%
    16:00 +6°C° 0 mm 1 mps 618 mmHg 24%
    17:00 +6°C° 0 mm 1 mps 619 mmHg 28%
    18:00 +5°C° 0 mm 1 mps 619 mmHg 32%
    19:00 +4°C° 0 mm 1 mps 619 mmHg 36%
    20:00 +4°C° 0 mm 1 mps 619 mmHg 37%
    21:00 +3°C° 0 mm 1 mps 619 mmHg 37%
    22:00 +3°C° 0 mm 1 mps 619 mmHg 37%
    23:00 +2°C° 0 mm 1 mps 619 mmHg 36%

    27 Enero, Domingo

    Tiempo Temperatura Precipitaciones Viento Presión Humedad
    00:00 +2°C° 0 mm 1 mps 619 mmHg 36%
    01:00 +2°C° 0 mm 1 mps 619 mmHg 36%
    02:00 +2°C° 0 mm 1 mps 619 mmHg 35%
    03:00 +2°C° 0 mm 1 mps 619 mmHg 35%
    04:00 +1°C° 0 mm 1 mps 619 mmHg 34%
    05:00 +1°C° 0 mm 1 mps 619 mmHg 34%
    06:00 +1°C° 0 mm 1 mps 620 mmHg 34%
    07:00 +1°C° 0 mm 1 mps 620 mmHg 34%
    08:00 +3°C° 0 mm 1 mps 620 mmHg 31%
    09:00 +4°C° 0 mm 1 mps 621 mmHg 27%
    10:00 +6°C° 0 mm 1 mps 622 mmHg 24%
    11:00 +7°C° 0 mm 1 mps 621 mmHg 24%
    12:00 +7°C° 0 mm 1 mps 621 mmHg 23%
    13:00 +8°C° 0 mm 1 mps 620 mmHg 23%
    14:00 +8°C° 0 mm 1 mps 620 mmHg 24%
    15:00 +9°C° 0 mm 1 mps 620 mmHg 24%
    16:00 +9°C° 0 mm 1 mps 620 mmHg 24%
    17:00 +8°C° 0 mm 1 mps 620 mmHg 29%
    18:00 +7°C° 0 mm 1 mps 620 mmHg 34%
    19:00 +4°C° 0 mm 0 mps 620 mmHg 39%
    20:00 +4°C° 0 mm 0 mps 620 mmHg 39%
    21:00 +5°C° 0 mm 1 mps 620 mmHg 39%
    22:00 +5°C° 0 mm 1 mps 620 mmHg 39%
    23:00 +5°C° 0 mm 1 mps 620 mmHg 38%

    28 Enero, Lunes

    Tiempo Temperatura Precipitaciones Viento Presión Humedad
    00:00 +5°C° 0 mm 1 mps 620 mmHg 38%
    01:00 +5°C° 0 mm 1 mps 620 mmHg 37%
    02:00 +4°C° 0 mm 1 mps 620 mmHg 38%
    03:00 +4°C° 0 mm 1 mps 619 mmHg 39%
    04:00 +3°C° 0 mm 1 mps 619 mmHg 39%
    05:00 +3°C° 0 mm 1 mps 619 mmHg 39%
    06:00 +3°C° 0 mm 1 mps 619 mmHg 39%
    07:00 +3°C° 0 mm 1 mps 620 mmHg 39%
    08:00 +5°C° 0 mm 1 mps 620 mmHg 35%
    09:00 +7°C° 0 mm 1 mps 621 mmHg 31%
    10:00 +8°C° 0 mm 1 mps 622 mmHg 28%
    11:00 +9°C° 0 mm 1 mps 621 mmHg 27%
    12:00 +10°C° 0 mm 1 mps 621 mmHg 27%
    13:00 +10°C° 0 mm 0 mps 621 mmHg 27%
    14:00 +10°C° 0 mm 0 mps 620 mmHg 27%
    15:00 +10°C° 0 mm 0 mps 620 mmHg 28%
    16:00 +11°C° 0 mm 0 mps 620 mmHg 29%
    17:00 +10°C° 0 mm 0 mps 620 mmHg 34%
    18:00 +9°C° 0 mm 0 mps 620 mmHg 38%
    19:00 +8°C° 0 mm 0 mps 620 mmHg 43%
    20:00 +8°C° 0 mm 0 mps 619 mmHg 44%
    21:00 +8°C° 0 mm 0 mps 619 mmHg 44%
    22:00 +7°C° 0 mm 0 mps 619 mmHg 44%
    23:00 +8°C° 0 mm 1 mps 619 mmHg 44%
    Mostrar más